Location: Unspecified
(51.5147°N, 7.4673°E)
Time: 20:36:37
(UTC+01:00)

A-11 Canister half - Pass Details

Date: 19 February 2026
Orbit: 1512 x 1687 km, 47.2° (Epoch: 8 March)

Event Time Altitude Azimuth Distance (km) Brightness Sun altitude
Rises 23:07:16 0° 254° (WSW) 4,935 11.8 -45.0°
Reaches altitude 10° 23:10:28 10° 252° (WSW) 3,938 11.2 -45.3°
Enters shadow 23:13:03 21° 250° (WSW) 3,163 10.6 -45.5°
Maximum altitude 23:20:28 69° 173° (S) 1,748 - -46.1°
Drops below altitude 10° 23:30:10 10° 93° (E) 3,827 - -46.8°
Sets 23:33:14 0° 91° (E) 4,789 - -47.0°
